This demonstration page uses our WeatherBlox Daily Observations layout. Learn more.

Left ArrowRight Arrow

39.92423, -83.80882

Hourly Observations for August 17, 2019

Temp ( °F °C ) Dew Point ( °F °C ) Humidity (%) Winds ( mph kmh ) Pressure ( in mb ) Visibility ( mi km ) Precip ( " mm )
12:56 am 00:56 Clear 71 21.7 66 18.9 84 84 S 3 6 29.96 1015 10 16.0934 N/A
1:56 am 01:56 Clear 69 20.6 66 18.9 90 90 SW 5 7 29.97 1015 10 16.0934 N/A
2:56 am 02:56 Cloudy 69 20.6 66 18.9 90 90 SW 5 7 29.96 1015 10 16.0934 N/A
3:56 am 03:56 Partly Cloudy 68 20 66 18.9 93 93 SW 6 9 29.96 1015 10 16.0934 N/A
4:56 am 04:56 Clear 68 20 66 18.9 93 93 SSW 3 6 29.95 1014 10 16.0934 N/A
5:56 am 05:56 Clear 66 18.9 64 17.8 93 93 N N/A 29.94 1014 10 16.0934 N/A
6:56 am 06:56 Sunny 67 19.4 67 19.4 100 100 SSW 3 6 29.94 1014 10 16.0934 N/A
7:56 am 07:56 Sunny 70 21.1 68 20 93 93 SSW 7 11 29.98 1015 10 16.0934 N/A
8:56 am 08:56 Sunny 72 22.2 69 20.6 91 91 WSW 6 9 29.99 1016 10 16.0934 N/A
9:56 am 09:56 Sunny 76 24.4 70 21.1 82 82 W 9 15 30 1016 10 16.0934 N/A
10:56 am 10:56 Sunny 76 24.4 70 21.1 82 82 SSW 6 9 29.99 1016 10 16.0934 N/A
11:56 am 11:56 Sunny 79 26.1 71 21.7 77 77 SSW 6 9 30.01 1016 10 16.0934 N/A
12:56 pm 12:56 Partly Cloudy 80 26.7 71 21.7 74 74 WSW 8 13 30.01 1016 10 16.0934 0.001 0.001
1:56 pm 13:56 Cloudy 81 27.2 70 21.1 69 69 W 7 11 30.02 1017 10 16.0934 N/A
2:56 pm 14:56 Cloudy 82 27.8 68 20 63 63 WSW 9 15 30.01 1016 10 16.0934 N/A
3:56 pm 15:56 Sunny 82 27.8 67 19.4 60 60 VRB 3 6 29.96 1015 10 16.0934 N/A
4:56 pm 16:56 Sunny 82 27.8 69 20.6 65 65 SSW 3 6 29.95 1014 10 16.0934 N/A
5:56 pm 17:56 Sunny 83 28.3 71 21.7 67 67 SSW 7 11 29.94 1014 10 16.0934 N/A
6:56 pm 18:56 Sunny 81 27.2 71 21.7 72 72 S 5 7 29.95 1014 10 16.0934 N/A
7:56 pm 19:56 Sunny 79 26.1 72 22.2 79 79 S 5 7 29.94 1014 10 16.0934 N/A
8:56 pm 20:56 Clear 76 24.4 72 22.2 88 88 SSE 6 9 29.93 1014 10 16.0934 N/A
9:56 pm 21:56 Clear 75 23.9 72 22.2 90 90 SSE 5 7 29.95 1014 10 16.0934 N/A
10:56 pm 22:56 Clear 75 23.9 71 21.7 88 88 S 6 9 29.96 1014 10 16.0934 N/A
11:56 pm 23:56 Clear 74 23.3 70 21.1 88 88 S 5 7 29.96 1014 10 16.0934 N/A

Powered by AerisWeather